logo dgac
Miércoles 20 de Marzo del 2019
Buscar por aerodromo o helipuerto
Ingrese nombre de aeródromo, localidad o designador OACI:

Aeródromo: Teniente Vidal (PUB) (SCCY)

Ubicación: Coyhaique, XI Región, Chile (45º 35' 37'' S, 72º 06' 19'' W) Ver ubicación en el mapa

Pistas

Orientación Dimensión Pendiente Superficie Resistencia APCH THR RWY PAPI
03/21 1546 x 30 FM THR 21 - 246m CONC 1.300 m ASPH PCN 30 F/B/X/T No No
Horas de operación HJ
Elevación 311 m / 1020 ft
Otra Información Adm : D.G.A.C.
Uso : PUB
ubicado 5 km SW Coyhaique
TEL/FAX 67 2235003

Otra información ver AIP-Chile Volumen I AD 3.9-3.12-C

CCCM/FCCV Descargar
andera de Chile
Mapa de Teniente Vidal (PUB) (SCCY)

Último METAR

METAR SCCY 210000Z 01004KT CAVOK 10/06 Q1017

Último TAF

TAF SCCY 201013Z 2012/2024 VRB03KT 9999 BKN030 TN00/2012Z TX15/2019Z BECMG 2013/2015 30008KT SCT040 BECMG 2016/2018 CAVOK

Últimas fotos cámaras

Imagen aerodromo Teniente Vidal (PUB) (SCCY) N-Este tomada el 20-03-2019 09:34:51 Imagen aerodromo Teniente Vidal (PUB) (SCCY) Sur tomada el 20-03-2019 09:34:10

Último NOTAM

C0230/19 NOTAMN Q)SCTZ/QSTLT/IV/BO/A/000/999/4536S07206W005 A)SCCY B)1901261437 C)1904262359 E)TWR VIS LTD HACIA THR 21 POR ARBOLES

LLegadas a Teniente Vidal (PUB) (SCCY)

En vuelo

Vuelo Procedencia Hora Despegue Local Hora Arribo Local
CCPZX El Tepual (PUB) (SCTE) 19:33 20:45

Salidas de Teniente Vidal (PUB) (SCCY)

En vuelo

Vuelo Hacia Hora Despegue Local Hora Arribo Local